Weather History for Lawton, OK

Change the Weather History Date:

Saturday, September 28, 2013

  Actual Average Record
Temperature  
Mean Temperature 67 °F -  
Max Temperature 79 °F 83 °F 106 °F (1953)
Min Temperature 54 °F 56 °F 41 °F (1967)
Cooling Degree Days 2    
Growing Degree Days 17 (Base 50)    
Moisture  
Dew Point 60 °F    
Average Humidity 75    
Maximum Humidity 94    
Minimum Humidity 41    
Precipitation  
Precipitation 0.42 in - - ()
Sea Level Pressure  
Sea Level Pressure 29.93 in    
Wind  
Wind Speed 15 mph (NNE)    
Max Wind Speed 24 mph    
Max Gust Speed 34 mph    
Visibility 9 miles    
Events Rain , Thunderstorm    
Averages and records for this station are not official NWS values.
T = Trace of Precipitation, MM = Missing Value Source: NWS Daily Summary

Daily Weather History Graph

Daily Weather History Graph

Search for Another Location

Airport:

Trip Planner

Search our weather history database for the weather conditions in past years. The results will help you decide how hot, cold, wet, or windy it might be!

Date:

Astronomy

Sep. 28, 2013 Rise Set
Actual Time 7:26 AM CDT 7:21 PM CDT
Civil Twilight 7:01 AM CDT 7:46 PM CDT
Nautical Twilight 6:31 AM CDT 8:15 PM CDT
Astronomical Twilight 6:02 AM CDT 8:45 PM CDT
Moon 1:27 AM CDT (9/28) 3:29 PM CDT (9/28)
Length of Visible Light 12h 45m
Length of Day
11h 55m
Waning Crescent, 36% of the Moon is Illuminated
Sep 28
Waning Crescent
Oct 4
New
Oct 11
First Quarter
Oct 18
Full
Oct 26
Last Quarter

Hourly Weather History & Observations

Time (CDT) Temp. Dew Point Humidity Pressure Visibility Wind Dir Wind Speed Gust Speed Precip Events Conditions
12:53 AM 79.0 °F 69.1 °F 72% 29.79 in 10.0 mi SSE 12.7 mph - N/A   Partly Cloudy
1:53 AM 79.0 °F 70.0 °F 74% 29.77 in 10.0 mi SSE 16.1 mph - N/A   Overcast
2:12 AM 78.8 °F 69.8 °F 74% 29.81 in 10.0 mi SSE 16.1 mph 24.2 mph N/A   Overcast
2:53 AM 79.0 °F 70.0 °F 74% 29.78 in 10.0 mi SSE 16.1 mph 26.5 mph N/A   Mostly Cloudy
3:00 AM 78.8 °F 69.8 °F 74% 29.82 in 10.0 mi SSE 18.4 mph 23.0 mph N/A   Mostly Cloudy
3:53 AM 78.1 °F 71.1 °F 79% 29.78 in 10.0 mi SSE 12.7 mph - N/A   Overcast
4:53 AM 78.1 °F 71.1 °F 79% 29.79 in 10.0 mi SSE 13.8 mph - N/A   Overcast
5:53 AM 78.1 °F 71.1 °F 79% 29.79 in 10.0 mi SSE 17.3 mph 20.7 mph N/A   Overcast
6:22 AM 78.8 °F 71.6 °F 78% 29.84 in 10.0 mi SSE 13.8 mph - N/A   Overcast
6:53 AM 77.0 °F 71.1 °F 82% 29.79 in 10.0 mi SSE 13.8 mph - N/A   Overcast
7:27 AM 69.8 °F 66.2 °F 88% 29.88 in 6.0 mi NNW 17.3 mph 34.5 mph 0.02 in Rain , Thunderstorm Heavy Rain
7:35 AM 69.8 °F 66.2 °F 88% 29.90 in 2.5 mi NNW 20.7 mph 29.9 mph 0.15 in Rain , Thunderstorm Heavy Rain
7:42 AM 64.4 °F 62.6 °F 94% 29.90 in 2.0 mi North 24.2 mph 34.5 mph 0.21 in Rain Heavy Rain
7:50 AM 64.4 °F 62.6 °F 94% 29.91 in 10.0 mi North 18.4 mph 33.4 mph 0.21 in Rain Light Rain
7:53 AM 64.9 °F 62.1 °F 90% 29.88 in 10.0 mi North 19.6 mph 28.8 mph 0.21 in Rain Light Rain
8:53 AM 63.0 °F 59.0 °F 87% 29.94 in 9.0 mi North 20.7 mph 27.6 mph 0.09 in Rain Rain
9:53 AM 62.1 °F 59.0 °F 90% 29.99 in 10.0 mi North 17.3 mph - 0.08 in Rain Light Rain
10:53 AM 60.1 °F 57.9 °F 93% 30.01 in 8.0 mi North 19.6 mph 26.5 mph 0.03 in Rain Rain
11:53 AM 62.1 °F 55.9 °F 80% 30.00 in 10.0 mi North 21.9 mph 27.6 mph 0.01 in   Clear
12:53 PM 66.0 °F 55.0 °F 68% 30.02 in 10.0 mi North 15.0 mph 25.3 mph N/A   Clear
1:53 PM 66.0 °F 53.1 °F 63% 30.02 in 10.0 mi NNE 18.4 mph 26.5 mph N/A   Clear
2:53 PM 71.1 °F 52.0 °F 51% 30.01 in 10.0 mi North 17.3 mph 24.2 mph N/A   Clear
3:53 PM 72.0 °F 50.0 °F 46% 30.00 in 10.0 mi North 17.3 mph - N/A   Clear
4:53 PM 72.0 °F 50.0 °F 46% 29.99 in 10.0 mi NNE 16.1 mph 21.9 mph N/A   Clear
5:53 PM 73.9 °F 50.0 °F 43% 29.99 in 10.0 mi North 15.0 mph - N/A   Clear
6:53 PM 72.0 °F 46.9 °F 41% 30.00 in 10.0 mi North 15.0 mph - N/A   Clear
7:53 PM 66.9 °F 51.1 °F 57% 30.04 in 10.0 mi NE 5.8 mph - N/A   Clear
8:53 PM 63.0 °F 52.0 °F 67% 30.09 in 10.0 mi NNE 4.6 mph - N/A   Clear
9:53 PM 57.0 °F 53.1 °F 87% 30.12 in 10.0 mi NNW 4.6 mph - N/A   Clear
10:53 PM 55.9 °F 53.1 °F 90% 30.13 in 5.0 mi NW 3.5 mph - N/A   Clear
11:53 PM 54.0 °F 51.1 °F 90% 30.12 in 10.0 mi NW 3.5 mph - N/A   Clear